Temp
16 14 13 14 13 15 15 15 15 16 17 17 17 17 17 18 17 18 18 19 20 17 16 14 13 13 12 12 12 12 12 11 12 11 11 11 11 12 14 14 14 15 15 16
14 13 15 15 15 15 15 15 15 17 17 17 16 16 17 17 18 18 18 19 18 17 15 13 12 11 10 10 10 10 10 10 9 8 8 8 8 10 11 11 13 14 13 14
13 15 16 16 15 15 15 15 16 16 15 15 14 14 16 18 17 18 19 19 19 16 14 12 11 9 8 8 8 8 8 8 7 7 7 6 7 7 8 10 11 12 12 12
14 16 16 16 16 16 15 14 14 14 13 13 13 13 16 16 16 17 17 15 14 13 13 11 10 8 7 7 7 7 6 6 6 6 5 4 4 4 4 5 5 7 9 10
14 16 15 15 16 15 14 14 13 13 12 10 13 11 15 17 16 16 15 13 11 11 10 10 9 8 7 6 6 5 5 5 4 4 4 3 3 3 3 4 4 5 5 6
15 15 15 15 15 15 13 13 13 12 11 9 13 12 12 14 15 15 14 12 11 11 10 10 8 7 6 5 5 4 3 3 3 2 2 3 2 2 3 3 4 5 5 6
15 14 14 15 14 14 12 12 12 9 11 11 14 13 13 12 11 13 11 9 9 10 9 8 7 6 5 4 4 4 2 2 1 1 1 2 2 2 2 2 3 3 4 5
12 13 13 14 14 13 11 12 11 11 11 11 14 11 11 9 7 8 9 9 8 8 8 7 7 6 5 4 3 2 2 2 1 0 0 1 1 1 1 1 2 2 4 4
13 14 16 14 14 14 11 10 13 11 10 9 11 12 12 8 6 6 5 6 6 6 6 6 5 4 4 3 2 2 1 1 0 -0 -1 -0 0 0 0 1 1 2 2 3
14 14 15 16 15 14 13 12 11 10 10 11 13 11 10 9 7 6 5 4 3 4 5 5 4 4 3 2 2 1 1 0 -0 -1 -1 -1 -1 -0 -0 -0 0 0 1 2
13 13 13 15 14 13 12 13 12 11 10 11 11 11 9 8 8 7 5 5 6 6 5 4 3 3 2 2 2 1 -0 -1 -1 -1 -1 -1 -1 -1 -1 -1 -1 -1 -0 0
12 12 11 13 15 15 15 14 13 10 10 10 10 11 9 9 10 9 8 7 5 4 4 3 2 2 1 1 1 0 -1 -1 -1 -1 -1 -2 -1 -1 -1 -2 -2 -2 -2 -1
11 10 11 11 13 14 13 14 14 13 10 11 10 10 10 10 10 9 7 6 5 4 3 2 2 1 1 1 0 -1 -2 -2 -2 -2 -2 -2 -2 -2 -2 -2 -3 -3 -3 -2
11 10 10 11 12 12 12 14 14 12 10 10 10 10 10 8 8 7 6 5 4 3 3 2 1 1 0 -0 -1 -1 -2 -2 -2 -2 -2 -2 -2 -2 -2 -3 -3 -3 -3 -3
9 9 11 13 13 13 13 14 15 14 13 11 12 10 8 7 6 5 5 4 3 2 2 1 0 0 -1 -1 -2 -2 -2 -2 -3 -2 -2 -3 -2 -2 -2 -2 -3 -3 -4 -4
10 8 8 9 13 14 14 14 14 14 13 10 10 8 8 6 5 4 4 3 2 1 1 0 -0 -1 -1 -1 -2 -2 -3 -3 -3 -3 -3 -3 -3 -3 -3 -3 -3 -4 -4 -4
8 7 8 10 10 11 10 12 12 10 9 10 8 8 5 4 3 3 2 2 1 -0 -0 -1 -1 -2 -2 -2 -2 -3 -3 -3 -3 -4 -4 -3 -4 -4 -4 -3 -3 -4 -4 -5
8 8 8 8 9 9 9 10 11 8 6 8 7 6 5 3 1 1 1 1 0 -1 -1 -1 -2 -2 -2 -2 -2 -3 -3 -3 -3 -4 -4 -4 -5 -5 -4 -4 -4 -4 -4 -5
10 8 7 8 9 9 10 9 7 7 5 4 6 3 2 1 1 -0 -0 -0 -2 -1 -3 -3 -2 -3 -3 -3 -2 -2 -3 -3 -3 -4 -4 -5 -5 -6 -6 -6 -6 -5 -6 -6
10 10 8 7 9 7 6 9 8 7 4 3 3 4 2 1 1 -0 -1 -1 -2 -3 -2 -3 -3 -4 -4 -4 -3 -2 -2 -3 -3 -4 -4 -4 -5 -6 -6 -6 -7 -6 -6 -7
9 7 9 8 7 7 7 9 8 6 5 2 1 -1 2 2 -3 -2 -2 -2 -2 -2 -3 -4 -4 -5 -5 -4 -4 -3 -3 -3 -3 -3 -4 -4 -5 -6 -6 -7 -7 -7 -7 -7
8 8 8 8 6 6 4 7 7 2 1 0 -2 -2 -2 -2 -2 -3 -4 -4 -3 -3 -4 -4 -5 -5 -5 -5 -4 -4 -4 -3 -3 -4 -4 -5 -5 -6 -6 -7 -7 -7 -7 -7
6 5 5 5 4 2 3 2 1 1 0 0 -2 -2 -3 -3 -3 -5 -5 -7 -5 -4 -5 -4 -5 -6 -6 -6 -6 -6 -5 -4 -4 -4 -5 -5 -5 -6 -6 -7 -7 -7 -7 -7
7 6 3 4 3 3 2 2 2 1 -0 0 -1 -1 -2 -4 -6 -6 -7 -6 -6 -5 -5 -6 -6 -7 -7 -7 -6 -6 -5 -5 -5 -5 -5 -5 -5 -5 -6 -7 -7 -7 -7 -7
7 6 4 3 3 3 2 2 1 0 0 -1 -1 -2 -4 -5 -5 -5 -5 -6 -7 -7 -7 -7 -8 -8 -8 -7 -6 -6 -6 -6 -5 -5 -5 -5 -5 -5 -6 -6 -6 -7 -8 -7
6 4 3 3 3 2 1 1 1 -0 -1 -2 -3 -3 -3 -4 -4 -5 -6 -6 -7 -8 -8 -8 -9 -9 -9 -8 -7 -6 -6 -6 -6 -6 -6 -6 -6 -6 -6 -6 -6 -7 -8 -8
Height
775 788 792 787 790 784 786 788 783 777 772 770 773 756 746 741 745 739 732 729 727 730 734 731 728 729 730 732 733 735 736 739 743 745 744 744 743 743 743 743 742 741 739 739
782 781 775 778 784 785 785 786 780 761 762 767 769 756 746 735 737 733 728 724 731 736 746 733 732 730 731 734 738 739 741 743 746 749 753 753 750 744 743 741 739 737 736 735
781 771 766 775 779 780 780 779 773 772 770 766 770 762 742 732 726 723 721 718 724 728 739 739 738 736 738 738 742 742 746 749 748 749 752 751 748 746 741 738 736 733 732 731
773 764 767 770 772 771 778 774 773 775 779 779 774 774 726 729 725 723 720 719 724 738 746 738 741 741 744 746 746 750 751 749 750 750 750 752 751 748 746 743 737 732 729 727
763 757 766 769 766 768 773 774 776 779 783 789 771 791 733 728 727 727 725 729 732 742 754 748 741 743 749 753 752 760 757 747 752 752 751 752 751 749 744 739 736 730 727 724
758 754 757 760 762 763 773 776 777 782 788 803 764 772 753 745 738 736 738 748 743 744 748 747 749 754 756 757 756 762 758 747 753 754 754 751 752 750 744 736 732 726 724 721
757 755 754 755 767 766 773 781 787 805 787 782 755 761 755 753 752 740 744 753 763 755 754 754 756 760 760 760 756 761 755 756 756 753 751 751 751 749 744 736 729 726 720 716
767 765 754 749 753 761 773 777 790 787 783 775 755 770 768 773 776 762 759 761 761 770 760 762 763 766 764 760 760 766 765 759 755 753 751 752 747 745 741 736 730 725 720 714
759 756 739 743 745 751 772 783 768 779 783 796 766 757 759 782 783 782 782 781 781 774 775 768 768 771 767 763 771 773 764 758 756 753 750 749 746 743 740 734 729 725 716 709
744 750 742 738 742 749 757 764 779 787 783 770 752 765 774 777 784 782 787 788 791 789 771 774 774 770 772 778 773 771 767 762 761 756 752 749 745 742 738 733 728 723 712 706
740 745 749 739 742 747 757 759 764 770 779 769 762 768 777 781 779 785 787 784 784 779 785 782 782 783 782 779 773 772 768 765 759 754 753 751 748 745 738 731 726 719 712 704
744 746 753 741 730 732 736 743 753 775 775 772 774 762 774 774 774 780 782 784 781 779 784 782 781 780 781 780 778 774 772 769 763 759 760 757 751 744 738 732 726 719 712 705
743 755 752 749 741 735 737 738 739 749 764 763 773 763 767 769 772 778 781 782 783 786 786 788 789 787 787 786 782 779 776 770 766 765 761 758 752 745 739 734 727 718 713 707
741 752 751 742 732 732 735 731 733 744 764 758 757 758 762 774 778 783 788 791 792 793 795 797 798 795 795 792 787 783 779 772 771 768 763 758 754 749 743 738 728 723 717 711
747 754 744 732 725 727 727 726 723 730 739 749 743 752 769 778 785 789 793 795 798 801 800 801 801 799 797 793 791 785 779 779 775 770 764 760 758 752 747 741 734 728 722 714
741 755 754 748 728 724 726 722 724 725 731 748 750 766 772 783 788 792 793 798 800 801 802 802 802 800 799 795 791 788 786 782 777 772 767 764 761 757 752 744 739 735 726 718
747 753 752 741 739 738 742 730 728 743 750 747 759 758 778 789 793 796 800 801 802 805 806 806 805 803 801 798 794 792 790 786 779 774 770 768 765 760 754 749 744 739 731 728
746 750 752 750 744 746 741 736 732 749 764 757 760 768 776 789 799 802 804 805 807 810 810 809 808 805 804 802 800 798 793 787 781 777 775 773 769 765 761 754 748 744 741 737
731 747 753 753 744 744 740 743 750 750 772 771 767 779 789 797 800 806 807 809 811 811 812 811 810 810 808 806 802 798 793 789 786 783 782 779 776 771 766 760 756 751 747 743
730 734 748 751 743 755 756 744 746 749 773 774 774 776 786 793 795 805 808 811 812 813 813 813 812 811 808 805 802 798 795 794 791 791 788 784 781 776 771 767 763 757 753 751
734 744 738 739 748 752 747 743 745 764 767 775 780 785 784 787 800 803 809 811 812 813 814 814 812 811 809 806 804 801 799 797 797 795 791 789 784 781 778 774 768 762 758 755
731 735 739 742 757 753 756 750 753 771 774 778 785 787 790 794 801 806 810 811 812 812 814 814 811 810 810 808 806 805 803 803 801 797 795 792 789 787 783 779 775 769 764 760
738 739 746 751 758 762 761 763 765 767 773 779 786 790 792 797 803 808 812 813 813 814 815 815 813 813 813 812 810 809 808 806 804 802 799 796 794 791 788 784 780 774 771 767
730 733 752 754 761 762 764 765 767 770 776 781 786 791 796 800 807 810 813 814 816 817 817 817 817 817 818 816 813 812 811 811 808 805 802 800 798 796 793 790 786 783 778 775
727 731 745 755 761 763 766 768 771 776 779 784 789 793 798 803 807 811 814 817 818 819 820 820 821 820 820 819 818 817 815 813 810 808 807 804 802 798 796 793 791 789 786 783
726 737 744 748 745 751 761 768 772 777 782 787 791 797 801 803 806 812 815 817 819 821 822 822 822 823 824 823 822 820 817 815 814 811 809 806 804 801 799 797 796 795 792 789
Wind_Speed
5 4 9 16 9 8 4 9 17 14 6 8 9 23 19 13 11 18 18 14 11 12 11 18 23 28 32 31 30 27 24 24 23 24 25 27 26 27 22 22 23 23 22 19
2 12 12 8 8 12 13 15 17 20 8 6 9 22 22 23 17 17 16 14 10 13 7 13 22 27 30 31 29 27 25 22 21 21 19 14 23 19 24 22 24 23 23 24
10 6 8 10 11 14 14 16 16 15 5 5 7 14 21 13 12 11 12 13 13 19 14 13 16 23 26 30 28 26 24 21 20 20 21 22 19 20 20 28 28 26 27 27
9 16 15 14 10 9 10 3 4 3 5 7 6 11 30 9 11 7 10 8 19 15 11 14 14 22 24 27 29 26 22 23 21 21 22 23 17 16 19 23 25 30 29 29
8 1 8 14 16 5 2 2 4 1 1 4 4 3 11 18 17 10 1 15 17 14 9 12 17 25 25 27 27 22 22 28 22 21 20 19 20 21 24 22 21 23 24 26
8 2 6 7 4 4 7 3 1 2 2 3 4 7 5 6 5 5 14 12 15 15 15 17 23 23 22 22 22 20 23 32 25 21 20 16 18 22 24 23 24 22 23 24
3 5 5 5 4 3 4 5 3 3 3 6 3 2 4 12 16 14 17 17 10 11 14 16 16 18 21 22 26 21 27 24 25 23 21 18 17 20 21 23 23 28 25 26
5 6 8 5 9 7 5 7 4 6 3 4 4 3 5 15 19 21 19 16 18 10 15 15 16 18 19 23 26 23 20 20 25 24 22 19 20 21 22 23 24 26 25 27
5 5 2 6 4 8 5 4 2 2 3 1 3 3 11 11 12 14 14 15 13 14 11 15 17 20 23 23 19 20 21 22 24 26 24 23 22 23 24 26 25 25 26 28
6 6 4 3 5 2 6 7 3 2 4 4 3 4 2 1 2 9 8 9 8 7 14 13 14 21 21 17 18 21 20 19 18 21 23 24 24 25 25 25 25 27 30 31
5 5 4 6 8 10 4 4 2 3 2 2 2 2 2 4 6 7 8 10 8 12 11 11 13 15 16 17 19 21 24 23 25 25 25 25 25 24 25 25 27 28 29 31
2 4 7 12 4 9 10 11 10 3 4 2 2 2 5 7 5 11 10 9 11 14 13 13 18 19 19 19 19 21 23 22 23 22 21 22 23 25 26 26 27 30 30 29
6 3 2 2 4 1 7 8 11 10 3 5 3 2 10 7 13 10 10 10 11 12 12 11 14 16 18 18 18 19 21 23 24 22 22 23 26 27 27 29 30 31 31 30
6 4 5 4 3 4 5 8 9 9 3 3 6 7 6 14 11 10 10 10 9 11 10 9 9 12 13 15 17 18 20 23 23 21 23 25 26 27 28 29 32 32 31 31
6 5 5 7 3 4 5 2 8 12 12 7 6 9 10 8 10 9 9 9 9 9 9 10 10 11 14 15 16 18 21 21 20 22 24 26 26 27 29 30 30 31 33 33
3 2 2 2 11 3 4 3 2 2 2 8 15 10 10 11 10 7 7 7 8 10 10 10 11 14 14 17 17 17 18 21 20 22 25 25 25 27 27 31 33 32 32 33
6 4 3 3 7 5 5 2 5 5 7 6 6 6 10 9 8 7 8 8 8 8 8 8 9 14 15 15 18 18 18 20 23 24 26 26 27 28 30 30 30 33 34 35
6 5 1 2 6 4 2 5 8 14 6 6 13 12 9 11 10 9 7 7 7 6 5 6 9 11 14 15 15 15 19 22 27 28 27 28 28 27 28 29 30 33 30 31
6 4 2 3 4 3 4 4 5 4 3 3 8 12 14 12 11 9 7 6 5 6 6 7 9 10 13 15 14 15 20 22 24 26 25 26 27 28 28 29 27 28 30 31
8 4 3 3 4 6 3 3 4 4 1 5 5 12 14 12 3 4 8 7 6 10 9 9 12 15 19 21 19 18 17 20 21 21 23 28 25 29 29 29 26 28 30 29
5 3 7 2 2 0 1 4 2 4 4 6 4 3 7 6 2 10 7 5 9 11 12 14 15 16 18 20 20 21 21 23 20 16 26 29 29 27 28 27 31 31 29 28
9 6 3 3 2 5 2 0 5 5 4 7 5 4 10 13 12 9 7 5 8 11 14 13 15 16 17 19 20 21 22 22 21 23 21 26 29 26 28 28 27 30 29 29
1 5 5 2 2 2 3 4 7 5 9 7 9 8 12 12 10 7 5 4 12 14 13 12 13 14 18 20 20 19 21 19 20 21 22 21 23 27 26 24 26 28 28 27
2 3 4 4 4 5 7 8 8 10 9 11 12 11 10 12 8 7 5 7 11 14 14 13 14 14 15 18 19 20 18 15 17 20 22 22 21 20 23 22 23 26 27 24
3 5 7 4 7 8 6 7 11 11 12 12 10 10 10 11 9 9 8 10 14 15 14 14 12 12 15 17 18 18 17 16 15 17 19 19 19 20 19 20 21 24 28 26
1 5 4 4 12 4 11 11 13 12 11 10 12 11 12 12 10 12 9 12 14 14 14 16 15 14 12 14 16 16 20 18 16 14 16 20 21 23 22 21 19 19 24 25
Wind_Direction
172 171 200 213 206 233 251 265 272 273 250 302 292 280 290 286 292 295 295 302 333 89 107 111 101 93 86 77 69 60 52 37 25 16 4 347 340 332 322 318 315 310 308 307
307 237 227 210 216 240 247 259 267 282 280 315 302 283 288 284 283 273 286 283 125 116 118 101 89 83 79 74 65 55 48 40 29 19 7 353 331 325 324 323 315 313 310 303
202 223 203 208 223 241 245 251 270 267 339 197 296 288 285 285 263 277 282 286 168 143 129 82 70 72 70 67 62 58 50 43 33 20 2 352 350 334 337 331 326 320 316 309
237 227 240 247 243 244 267 339 42 12 16 298 88 297 294 282 291 285 298 88 106 94 97 98 84 71 65 61 54 48 50 45 27 14 6 356 348 331 319 318 319 321 318 313
223 141 213 233 241 178 226 123 109 119 37 354 175 245 270 333 310 316 119 115 107 112 109 84 90 78 67 60 56 42 45 43 28 16 10 357 338 328 325 322 316 321 318 317
246 89 170 214 155 151 139 96 119 79 125 260 188 197 316 3 353 32 81 81 109 113 100 85 74 74 67 60 54 34 35 36 25 15 9 360 341 328 326 330 324 323 319 312
318 216 182 141 147 154 104 81 307 321 230 239 339 224 300 351 9 311 122 99 36 83 88 80 73 63 56 49 43 26 27 25 17 16 10 359 345 333 326 327 327 321 317 314
188 303 163 185 200 182 159 160 182 230 234 282 304 248 20 47 27 30 77 88 98 55 76 72 70 61 55 52 40 25 18 18 13 9 5 357 353 342 335 328 325 315 311 311
191 246 277 173 154 140 155 185 178 293 239 344 227 106 55 24 46 41 43 42 54 76 64 72 66 54 45 46 36 20 17 15 9 6 1 356 351 348 339 335 330 321 319 320
207 252 242 168 103 144 152 153 109 123 228 239 257 89 145 125 79 104 72 66 52 63 64 57 54 48 41 35 31 18 16 14 4 4 4 356 352 350 344 341 335 330 331 331
148 151 273 140 201 171 151 187 150 161 207 245 295 171 219 242 147 121 124 120 95 63 67 67 62 54 40 29 29 19 12 8 11 8 2 357 355 352 352 350 345 341 339 340
313 151 222 214 186 181 192 199 181 156 224 225 104 214 191 211 169 150 134 107 78 63 47 39 33 30 27 23 22 20 9 6 11 10 4 360 359 1 360 357 353 354 348 347
157 188 216 268 344 224 194 210 203 196 119 200 175 204 188 110 123 105 95 80 71 62 56 43 29 25 16 13 16 15 8 9 10 11 10 8 8 7 6 3 2 4 358 355
148 170 225 231 182 151 170 200 188 171 170 208 196 151 178 127 130 110 93 84 73 60 51 48 36 30 20 17 18 13 10 12 10 13 14 13 13 11 12 9 13 11 8 5
134 197 219 259 190 183 195 179 220 201 207 186 194 138 133 114 110 99 90 79 72 63 55 45 36 30 24 21 17 19 20 13 12 19 19 15 11 15 14 12 11 12 15 15
130 181 28 280 266 259 228 220 94 192 50 72 120 114 130 123 109 85 72 67 57 45 42 41 38 36 33 30 27 24 20 16 20 22 20 16 14 16 15 19 21 17 16 16
144 145 157 231 203 263 298 226 120 113 45 139 170 160 141 117 104 97 88 75 67 52 50 42 42 36 31 24 27 26 24 25 29 27 23 18 18 17 20 22 21 18 18 19
151 121 103 256 121 215 102 47 110 110 67 77 110 130 129 124 116 96 80 91 91 83 61 52 40 32 27 25 27 32 36 38 36 33 27 21 18 17 18 24 26 26 18 19
126 114 203 183 203 102 161 153 155 149 184 340 124 123 125 124 110 98 98 95 94 106 102 66 65 46 39 29 28 37 39 38 38 31 28 26 22 24 20 20 18 25 26 18
203 188 168 186 172 208 239 145 127 114 251 177 124 159 156 158 162 147 127 119 116 105 97 86 60 55 46 34 46 33 38 41 38 32 33 37 28 30 27 25 18 31 31 25
179 190 210 190 199 241 83 132 137 94 214 141 124 130 172 181 160 126 113 114 116 121 100 80 67 54 40 39 38 39 42 40 39 33 39 41 40 30 32 30 31 32 31 26
180 173 175 143 114 251 11 145 185 150 83 117 103 109 120 118 115 106 101 84 100 94 87 74 64 52 41 38 41 36 36 41 48 47 41 37 42 37 34 34 31 33 32 29
177 176 157 165 174 84 32 97 122 119 128 123 121 118 117 118 116 111 97 74 68 79 85 72 67 57 47 48 47 35 28 36 41 47 42 38 36 41 40 36 34 32 28 27
92 145 96 129 141 116 97 87 105 119 116 124 127 128 123 122 117 112 97 80 79 78 75 73 65 58 45 48 53 52 46 40 42 42 40 38 38 31 42 44 44 37 30 28
192 116 130 78 126 123 136 125 125 117 113 116 120 126 126 130 123 121 111 102 93 91 85 78 71 69 55 55 52 52 55 50 42 41 39 36 33 36 38 46 48 43 40 37
260 153 163 208 170 145 155 142 136 129 134 131 131 133 135 135 126 124 113 109 106 98 98 85 75 72 63 58 51 54 56 55 48 37 37 39 40 42 42 43 48 45 44 41